Location: Newark
(48.9886°N, 1.2358°E)
Time: 23:12:41
(UTC+00:00)

S-56A Canister/Altair - Visible Passes

Search period start: 17 November 2019 00:00
Search period end: 27 November 2019 00:00
Orbit: 634 x 2498 km, 38.9° (Epoch: 17 November)

Date Brightness Start Highest point End Pass type
(mag) Time Alt. Az. Time Alt. Az. Time Alt. Az.
17 Nov 9.0 18:34:44 10° SW 18:41:37 32° S 18:43:02 29° SSE visible
17 Nov 10.4 20:39:28 10° WSW 20:40:28 14° WSW 20:40:28 14° WSW visible
18 Nov 9.3 18:01:29 10° SW 18:08:57 32° S 18:12:08 21° SE visible
18 Nov 9.8 20:06:18 10° WSW 20:09:34 22° SW 20:09:34 22° SW visible
19 Nov 9.6 17:28:11 10° SW 17:36:14 33° S 17:41:14 13° ESE visible
19 Nov 9.2 19:33:03 10° WSW 19:38:40 31° SSW 19:38:40 31° SSW visible
20 Nov 9.8 16:54:50 10° SW 17:03:28 33° SSE 17:09:34 10° ESE visible
20 Nov 8.9 18:59:45 10° WSW 19:07:00 35° S 19:07:45 34° S visible
21 Nov 9.1 18:26:22 10° WSW 18:34:21 38° S 18:36:52 28° SE visible
21 Nov 10.3 20:32:06 10° WSW 20:34:17 17° WSW 20:34:17 17° WSW visible
22 Nov 9.4 17:52:56 10° WSW 18:01:38 40° S 18:05:59 19° SE visible
22 Nov 9.7 19:58:43 10° WSW 20:03:24 24° SW 20:03:24 24° SW visible
23 Nov 9.5 17:19:26 10° WSW 17:28:52 41° S 17:35:06 11° ESE visible
23 Nov 9.3 19:25:17 10° WSW 19:32:11 30° SSW 19:32:32 30° SSW visible
24 Nov 9.7 16:45:54 10° WSW 16:56:02 43° S 17:02:57 10° ESE visible
24 Nov 9.3 18:51:49 10° W 18:59:35 34° SSW 19:01:43 28° SSE visible
25 Nov 9.5 18:18:16 10° WSW 18:26:54 37° SSW 18:30:55 21° SE visible
25 Nov 10.3 20:25:17 10° WSW 20:28:20 15° SW 20:28:20 15° SW visible
26 Nov 9.7 17:44:41 10° WSW 17:54:09 41° SSW 18:00:09 12° SE visible
26 Nov 10.0 19:51:29 10° W 19:56:56 20° SW 19:57:35 19° SSW visible
